Regional Weather Roundup
Issued by NWS State College, PA

Home | Current Version | Previous Version | Text Only | Print | Product List | Glossary On
Versions: 1 2 3 4 5 6 7 8 9 10 11 12 13 14 15 16 17 18 19 20 21 22 23 24 25 26 27 28 29 30 31 32 33 34 35 36 37 38 39 40 41 42 43 44 45 46 47 48 49 50
000
ASUS41 KCTP 111703
RWRCTP

REGIONAL WEATHER ROUNDUP
NATIONAL WEATHER SERVICE STATE COLLEGE PA
1200 PM EST THU FEB 11 2016

Note: "fair" indicates few or no clouds below 12,000 feet with no
significant weather and/or obstructions to visibility.

* = STATION THAT DOES NOT REPORT PRECIPITATION /E.G. RAIN...SNOW...ETC/
    THUNDER OR FOG.

PAZ002>004-007>009-013>016-020>023-029>032-111800-
WESTERN PENNSYLVANIA

CITY           SKY/WX    TMP DP  RH WIND       PRES   REMARKS
ERIE           LGT SNOW  18   6  59 W17G26    30.10R WCI   3
MEADVILLE      LGT SNOW  13   3  64 NW16G24   30.06R WCI  -3
FRANKLIN*      CLOUDY    12   3  67 W13       30.07R VSB 3/4 WCI  -3
NEW CASTLE     SNOW      16  10  79 W10       30.14R VSB 1/2 WCI   3
BEAVER COUNTY  CLOUDY    19   5  53 W15G21    30.12R WCI   5
BUTLER*        CLOUDY    14   7  73 W13G20    30.14R WCI   0
PITTSBURGH INT PTSUNNY   16   3  56 W20G26    30.12S WCI  -1
PITTSBURGH     CLOUDY    18   0  45 NW13G26   30.12R WCI   5
INDIANA*       HAZE      14   9  79 W13       30.09S VSB 3/4 WCI   0
LATROBE        LGT SNOW N/A N/A N/A W14       30.13R
WASHINGTON CO* CLOUDY    16   3  57 W16       30.15S WCI   0
$$

PAZ004>006-010>012-017>019-024>028-033>037-041-042-045-046-049>053-111800-
CENTRAL PENNSYLVANIA

CITY           SKY/WX    TMP DP  RH WIND       PRES   REMARKS
BRADFORD       LGT SNOW  10   0  63 NW21      29.91R WCI  -9
DUBOIS         CLOUDY    12   2  64 W20G28    29.96S HAZE    WCI  -6
CLEARFIELD     MIX PCPN  15   1  53 W15G28    29.98S WCI   0
JOHNSTOWN      LGT SNOW  10  -1  61 W21G37    29.95S WCI  -9
ALTOONA        FLURRIES  15   5  64 NW15G23   30.02S WCI   0
STATE COLLEGE  CLOUDY    16   1  53 W18G28    29.98S WCI  -1
WILLIAMSPORT   FLURRIES  20   8  60 NW17G24   29.99R WCI   5
SELINSGROVE    CLOUDY    21   2  43 NW14G24   30.02S WCI   8
FT INDIANTOWN  NOT AVBL
CAPITAL CITY   CLOUDY    23   1  38 W20G30    30.05S WCI   8
HARRISBURG     PTSUNNY   22   6  50 W22G29    30.05S WCI   6
YORK           PTSUNNY   20   3  48 W16G25    30.05F WCI   6
$$

PAZ038>040-043-044-047-048-054-055-060>062-067>071-111800-
EASTERN PENNSYLVANIA

CITY           SKY/WX    TMP DP  RH WIND       PRES   REMARKS
SCRANTON       CLOUDY    18   4  54 W18G26    29.90R WCI   2
MOUNT POCONO   CLOUDY    15  -3  44 W29G39    29.79S WCI  -5
ALLENTOWN      PTSUNNY   22   1  40 W21G31    29.96F WCI   6
QUAKERTOWN*    CLOUDY    23   0  36 NW10G21   29.97S WCI  12
READING        PTSUNNY   22   3  44 W21G26    30.00S WCI   6
LANCASTER      CLOUDY    21   6  52 W22G30    30.02F WCI   5
COATESVILLE    SUNNY     19   5  53 NW20      30.01S WCI   4
POTTSTOWN      PTSUNNY   21   1  41 W17G32    30.01S WCI   7
BLUE BELL        N/A     23   1  39 W10G22    29.98F WCI  12
DOYLESTOWN     CLOUDY    21  -2  36 W17G25    29.96F WCI   7
WILLOW GROVE   NOT AVBL
NORTH PHILA    MOSUNNY   24   2  38 W23G36    30.01F WCI   9
PHILADELPHIA   PTSUNNY   25  -2  31 W24G30    30.03F WCI   9
$$



USA.gov is the U.S. government's official web portal to all federal, state and local government web resources and services.